• MPC Preparation (Info)

  • MPEC 2016-O43 : 2014 EZ51

    The following Minor Planet Electronic Circular may be linked-to from your own Web pages, but must not otherwise be redistributed electronically.

    A form allowing access to any MPEC is at the bottom of this page.


    Read MPEC 2016-O42 Read MPEC 2016-O44


    M.P.E.C. 2016-O43                                Issued 2016 July 16, 21:07 UT
    
         The Minor Planet Electronic Circulars contain information on unusual
             minor planets and routine data on comets.  They are published
        on behalf of Division F of the International Astronomical Union by the
              Minor Planet Center, Smithsonian Astrophysical Observatory,
                              Cambridge, MA 02138, U.S.A.
    
                 Prepared using the Tamkin Foundation Computer Network
    
                                  MPC@CFA.HARVARD.EDU
                URL https://www.minorplanetcenter.net/    ISSN 1523-6714
    
                                       2014 EZ51
    
    Observations:
         K14E51Z  C2011 01 30.63473 15 22 36.366-23 09 25.98         21.5 wLEO043F51
         K14E51Z  C2011 01 30.64024 15 22 36.366-23 09 26.01         21.4 wLEO043F51
         K14E51Z  C2011 01 30.64644 15 22 36.378-23 09 26.23         21.6 wLEO043F51
         K14E51Z  C2011 01 30.65198 15 22 36.379-23 09 26.33         21.6 wLEO043F51
         K14E51Z  C2012 05 19.39198 15 22 09.220-23 24 15.79         21.2 wLEO043F51
         K14E51Z  C2012 05 19.40745 15 22 09.162-23 24 15.64         21.2 wLEO043F51
         K14E51Z  C2012 05 19.42294 15 22 09.101-23 24 15.33         21.2 wLEO043F51
         K14E51Z  C2012 05 19.43840 15 22 09.043-23 24 15.22         21.1 wLEO043F51
         K14E51Z  C2012 05 20.37744 15 22 05.401-23 24 02.97         21.2 wLEO043F51
         K14E51Z  C2012 05 20.39204 15 22 05.345-23 24 02.62         21.3 wLEO043F51
         K14E51Z  C2012 05 20.40661 15 22 05.284-23 24 02.47         21.3 wLEO043F51
         K14E51Z  C2012 05 20.42120 15 22 05.228-23 24 02.25         21.3 wLEO043F51
         K14E51Z  C2013 05 11.41179 15 25 53.641-23 45 20.35         21.2 wLEO043F51
         K14E51Z  C2013 05 11.42566 15 25 53.578-23 45 20.22         21.3 wLEO043F51
         K14E51Z  C2013 05 11.43951 15 25 53.534-23 45 20.09         21.3 wLEO043F51
         K14E51Z  C2013 06 01.36070 15 24 32.575-23 40 50.25         21.2 wLEO043F51
         K14E51Z  C2013 06 01.37551 15 24 32.510-23 40 50.05         21.3 wLEO043F51
         K14E51Z  C2013 06 01.39031 15 24 32.455-23 40 49.81         21.4 wLEO043F51
         K14E51Z  C2013 06 01.40513 15 24 32.396-23 40 49.74         21.3 wLEO043F51
         K14E51Z* C2014 03 12.55064 15 32 09.235-24 10 23.08         21.0 iLEO043F51
         K14E51Z  C2014 03 12.56190 15 32 09.200-24 10 22.85         20.9 iLEO043F51
         K14E51Z  C2014 03 12.59190 15 32 09.176-24 10 23.09         21.3 wLEO043F51
         K14E51Z  C2014 03 12.60384 15 32 09.154-24 10 23.21         21.2 wLEO043F51
         K14E51Z  C2014 03 12.61576 15 32 09.148-24 10 22.71         21.3 wLEO043F51
         K14E51Z  C2014 03 12.62769 15 32 09.114-24 10 22.77         21.4 wLEO043F51
         K14E51Z  C2014 05 08.47098 15 29 20.763-24 05 08.96         21.4 wLEO043F51
         K14E51Z  C2014 05 08.48309 15 29 20.715-24 05 08.80         21.2 wLEO043F51
         K14E51Z  C2014 05 08.49521 15 29 20.668-24 05 08.62         21.3 wLEO043F51
         K14E51Z  C2014 05 08.50732 15 29 20.621-24 05 08.49         21.3 wLEO043F51
         K14E51Z  C2014 05 10.46777 15 29 12.917-24 04 46.14         21.0 iLEO043F51
         K14E51Z  C2014 05 10.47990 15 29 12.876-24 04 46.05         20.9 iLEO043F51
         K14E51Z  C2014 05 10.49198 15 29 12.838-24 04 45.82         20.7 iLEO043F51
         K14E51Z  C2014 05 10.50410 15 29 12.747-24 04 45.79         20.7 iLEO043F51
         K14E51Z  C2014 05 30.34257 15 27 55.122-24 00 37.37         21.4 wLEO043F51
         K14E51Z  C2014 05 30.35315 15 27 55.071-24 00 37.23         21.2 wLEO043F51
         K14E51Z  C2014 05 30.36372 15 27 55.030-24 00 37.18         21.3 wLEO043F51
         K14E51Z  C2014 05 30.37431 15 27 54.973-24 00 36.96         21.3 wLEO043F51
         K14E51Z  C2014 05 30.38298 15 27 54.973-24 00 36.65         21.2 wLEO043F51
         K14E51Z  C2014 05 30.39355 15 27 54.929-24 00 36.51         21.3 wLEO043F51
         K14E51Z  C2014 05 30.40412 15 27 54.892-24 00 36.61         21.3 wLEO043F51
         K14E51Z  C2014 05 30.41470 15 27 54.844-24 00 36.38         21.3 wLEO043F51
         K14E51Z  C2014 06 07.37228 15 27 25.269-23 58 50.82         21.4 rLEO043F51
         K14E51Z  C2014 06 07.38286 15 27 25.236-23 58 50.51         21.0 rLEO043F51
         K14E51Z  C2014 06 07.39345 15 27 25.198-23 58 50.44         20.8 rLEO043F51
         K14E51Z  C2014 06 19.33880 15 26 44.513-23 56 13.98         21.6 wLEO043F51
         K14E51Z  C2014 06 19.34940 15 26 44.480-23 56 13.96         21.4 wLEO043F51
         K14E51Z  C2014 06 19.35999 15 26 44.442-23 56 13.66         21.3 wLEO043F51
         K14E51Z  C2014 06 19.37057 15 26 44.411-23 56 13.54         21.3 wLEO043F51
         K14E51Z  C2014 06 27.32442 15 26 20.587-23 54 34.09         21.5 wLEO043F51
         K14E51Z  C2014 06 27.33575 15 26 20.549-23 54 33.80         21.5 wLEO043F51
         K14E51Z  C2014 06 27.34706 15 26 20.522-23 54 33.72         21.3 wLEO043F51
         K14E51Z  C2014 06 27.35848 15 26 20.493-23 54 33.60         21.5 wLEO043F51
         K14E51Z  C2014 07 01.31906 15 26 09.812-23 53 46.16         21.5 wLEO043F51
         K14E51Z  C2014 07 01.33034 15 26 09.776-23 53 46.08         21.5 wLEO043F51
         K14E51Z  C2014 07 01.34160 15 26 09.751-23 53 45.99         21.8 wLEO043F51
         K14E51Z  C2014 07 01.35287 15 26 09.723-23 53 45.81         21.5 wLEO043F51
         K14E51Z  C2015 04 02.55365 15 34 42.568-24 28 45.65         20.9 iLEO043F51
         K14E51Z  C2015 04 02.56447 15 34 42.520-24 28 45.66         21.0 iLEO043F51
         K14E51Z  C2015 04 02.57524 15 34 42.504-24 28 45.49         21.0 iLEO043F51
         K14E51Z  C2015 04 18.49740 15 33 53.310-24 27 18.94         21.1 wLEO043F51
         K14E51Z  C2015 04 18.50804 15 33 53.269-24 27 18.74         21.4 wLEO043F51
         K14E51Z  C2015 04 18.51867 15 33 53.239-24 27 18.68         21.3 wLEO043F51
         K14E51Z  C2015 04 18.52939 15 33 53.187-24 27 18.70         21.5 wLEO043F51
         K14E51Z  C2015 04 20.49257 15 33 46.378-24 27 03.88         21.4 wLEO043F51
         K14E51Z  C2015 04 20.50329 15 33 46.340-24 27 03.97         21.2 wLEO043F51
         K14E51Z  C2015 04 20.51398 15 33 46.283-24 27 03.78         21.3 wLEO043F51
         K14E51Z  C2015 04 20.52473 15 33 46.232-24 27 03.69         21.3 wLEO043F51
         K14E51Z  C2015 05 29.37800 15 31 16.370-24 20 02.32         20.9 iLEO043F51
         K14E51Z  C2015 05 29.38859 15 31 16.326-24 20 02.13         20.8 iLEO043F51
         K14E51Z  C2015 05 29.39961 15 31 16.286-24 20 02.03         20.7 iLEO043F51
         K14E51Z  C2015 05 29.41019 15 31 16.237-24 20 01.95         20.7 iLEO043F51
         K14E51Z  C2015 06 22.37799 15 29 51.312-24 14 50.29         21.1 iLEO043F51
         K14E51Z  C2015 06 22.38830 15 29 51.277-24 14 50.30         20.9 iLEO043F51
         K14E51Z  C2015 06 22.39866 15 29 51.252-24 14 50.10         21.2 iLEO043F51
         K14E51Z  C2015 06 22.40902 15 29 51.212-24 14 49.84         20.8 iLEO043F51
    
    Observer details:
    F51 Pan-STARRS 1, Haleakala.  Observers B. Gibson, T. Goggia, N. Primak,
        A. Schultz, M. Willman.  Measurers K. Chambers, S. Chastel, Y.-T. Chen,
        L. Denneau, H. Flewelling, M. Holman, M. Huber, R. Jedicke, M. Lackner,
        E. Lilly, H.-W. Lin, E. Magnier, M. Micheli, M. Payne, P. Veres,
        R. Wainscoat, C. Waters, R. Weryk.  1.8-m Ritchey-Chretien + CCD.
    
    Orbital elements:
    2014 EZ51
    Epoch 2016 July 31.0 TT = JDT 2457600.5                 MPC
    M 263.86442              (2000.0)            P               Q
    n   0.00260417     Peri.  330.68495     +0.99588387     +0.03850431
    a  52.3227080      Node    27.47605     +0.01154641     +0.84401199
    e   0.2239397      Incl.   10.24421     -0.08989998     +0.53494035
    P 378              H    3.7           G   0.15           U   3
    Residuals in seconds of arc
    110130 F51  0.1+  0.0     140508 F51  0.1+  0.1-    140627 F51  0.0   0.1-
    110130 F51  0.0   0.1+    140508 F51  0.1+  0.0     140627 F51  0.0   0.1-
    110130 F51  0.0   0.1-    140508 F51  0.1+  0.0     140701 F51  0.0   0.0
    110130 F51  0.1-  0.1-    140508 F51  0.1+  0.0     140701 F51  0.0   0.0
    120519 F51  0.0   0.1+    140510 F51  0.0   0.1-    140701 F51  0.0   0.1-
    120519 F51  0.0   0.0     140510 F51  0.1+  0.1-    140701 F51  0.1+  0.0
    120519 F51  0.0   0.1+    140510 F51  0.2+  0.0     150402 F51  0.1+  0.0
    120519 F51  0.1+  0.0     140510 F51  0.4-  0.1-    150402 F51  0.1-  0.1-
    120520 F51  0.1+  0.0     140530 F51  0.0   0.1-    150402 F51  0.1+  0.0
    120520 F51  0.1+  0.1+    140530 F51  0.2-  0.1-    150418 F51  0.0   0.0
    120520 F51  0.0   0.1+    140530 F51  0.2-  0.2-    150418 F51  0.0   0.1+
    120520 F51  0.1+  0.1+    140530 F51  0.4-  0.1-    150418 F51  0.1+  0.1+
    130511 F51  0.1+  0.0     140530 F51  0.1+  0.1+    150418 F51  0.1-  0.0
    130511 F51  0.0   0.0     140530 F51  0.0   0.1+    150420 F51  0.1+  0.1+
    130511 F51  0.1+  0.1-    140530 F51  0.1+  0.1-    150420 F51  0.1+  0.1-
    130601 F51  0.0   0.0     140530 F51  0.0   0.1-    150420 F51  0.2-  0.0
    130601 F51  0.1-  0.0     140607 F51  0.1-  0.1+    150420 F51  0.3-  0.0
    130601 F51  0.1-  0.1+    140607 F51  0.0   0.2+    150529 F51  0.1+  0.0
    130601 F51  0.2-  0.1-    140607 F51  0.0   0.1+    150529 F51  0.1+  0.1+
    140312 F51  0.0   0.2-    140619 F51  0.0   0.0     150529 F51  0.1+  0.1+
    140312 F51  0.2-  0.0     140619 F51  0.0   0.1-    150529 F51  0.0   0.0
    140312 F51  0.1+  0.2-    140619 F51  0.0   0.0     150622 F51  0.1+  0.1+
    140312 F51  0.0   0.3-    140619 F51  0.0   0.0     150622 F51  0.1+  0.0
    140312 F51  0.2+  0.3+    140627 F51  0.0   0.2-    150622 F51  0.2+  0.0
    140312 F51  0.0   0.2+    140627 F51  0.1-  0.0     150622 F51  0.1+  0.1+
    
    Ephemeris:
    2014 EZ51                a,e,i = 52.32, 0.22, 10                 q = 40.606
    Date    TT    R. A. (2000) Decl.     Delta      r     Elong.  Phase     V
    2016 06 16    15 33 27.8 -24 35 07  55.1317 56.0264   151.5     0.5    21.2
    ...
    2016 07 01    15 32 41.8 -24 32 01  55.2694 56.0193   137.2     0.7    21.3
    ...
    2016 07 09    15 32 22.0 -24 30 30  55.3630 56.0155   129.5     0.8    21.3
    ...
    2016 07 15    15 32 09.7 -24 29 28  55.4410 56.0127   123.8     0.9    21.3
    2016 07 16    15 32 07.9 -24 29 18  55.4546 56.0122   122.8     0.9    21.3
    2016 07 17    15 32 06.1 -24 29 08  55.4683 56.0117   121.9     0.9    21.3
    ...
    2016 07 23    15 31 56.9 -24 28 14  55.5537 56.0089   116.2     0.9    21.3
    ...
    2016 07 31    15 31 48.6 -24 27 12  55.6746 56.0051   108.5     1.0    21.3
    ...
    2016 08 15    15 31 45.5 -24 25 55  55.9152 55.9980    94.2     1.0    21.3
    
    A. U. Tomatic                (C) Copyright 2016 MPC           M.P.E.C. 2016-O43
    

    Read MPEC 2016-O42 Read MPEC 2016-O44


    MPEC number:

    Enter an MPEC number in one of the following forms:

    • 1997-B01 (the full form)
    • J97B01 (the packed version of the full form)
    • B01 (the abbreviated form)